CZ-6A DEB, 55551

Orbit data source: Space-Track

CZ-6A DEB, 55551 is space debris in SSO originally from a launch on Fri, 11 Nov 2022 UTC launched from the Taiyaun Space Center, China (TSC). Debris objects in space refer to the collection of defunct objects orbiting the Earth. Examples of debris include non-operational satellites, rocket bodies, and fragments generated from explosions, collisions, or faulty payload assembly.

Loading next visibility...
Identifier
55551, 2022-151YZ
Orbit
SSO
Country
Flag of CNCN / PRC
Related business
Manufacturer
SAST
Mission
Spacecraft
Bus & Motor
Unknown
Mass
Unknown
Launch date (UTC)
2022-11-11 (4 years ago)
Launch vehicle
Unknown
Launch site
Taiyaun Space Center, China (TSC)
Object type
Payload
Rocket body
Debris
Shape & HBR
Unknown shape, 0.1 m
Radar Cross Section
Small (<0.1 m²)

Expand to show TLE details & history
Last TLE update: 1 day ago

TLE from 1 day ago
0 CZ-6A DEB
1 55551U 22151YZ  26235.11752684  .00002820  00000-0  66709-3 0  9997
2 55551  98.6063 284.4786 0105950 129.8571 231.2002 14.51544846192674
Epoch: 2026-08-23T02:49Z
TLE epoch observation values (Epoch: 2026-08-23T02:49:14.318Z)
Latitude
-0.00008°
Longitude
-89.24923°
Altitude
771.186 km
Speed
7.443 km/s
True Right ascension
18h 57m 54s
True Declination
0° 00' 00"
Sunlit
Object was in full shadow at epoch
Visualization orbit readout
Latitude
Unknown
Longitude
Unknown
Altitude
Unknown
Speed
Unknown
Apparent Right ascension
Unknown
Apparent Declination
Unknown
Sunlit
N/A
Visualization observer readout
Local Sidereal Time
03:50:11
Azimuth
Unknown
Elevation
Unknown
Doppler factor
Unknown
Orbital elements
Apogee altitude
792.899 km
Perigee altitude
642.538 km
Semi-major axis
7,095.855 km
Eccentricity
0.0106
Inclination
98.6063°
RAAN
284.4786°
Arg. of periapsis
129.8571°
True anomaly
230.26184°
Mean anomaly
231.2002°
Eccentric anomaly
230.73024°
Mean motion
3.63108 °/min
Orbital period
99.14 mins
BSTAR
0.00066709
Loading maneuver chart data...
Computing Atmospheric mass density...
Loading historical data...
Loading historical data...
Loading historical data...
Loading historical data...
Loading historical data...
Loading historical data...
Loading historical data...

Documentation

Showing up to 5 results
|